FW2439 Weather Reports


time (UTC)temp
C
wind
direction
speed
KPH
gust
KPH
rain 1hr
cm
rain 24hr
cm
rain mn
cm
humidity
%
barometer
mb
20260504191559 26 212 8.0 22.5 0.00 0.00 0.00 47 1012.3
20260504190125 26 223 8.0 17.7 0.00 0.00 0.00 46 1012.4
20260504184558 26 176 8.0 12.9 0.00 0.00 0.00 48 1012.4
20260504183051 25 212 8.0 22.5 0.00 0.00 0.00 50 1012.4
20260504181556 25 203 11.3 25.7 0.00 0.00 0.00 48 1012.5
20260504180128 25 181 6.4 20.9 0.00 0.00 0.00 50 1012.6
20260504174549 25 173 6.4 19.3 0.00 0.00 0.00 49 1012.9
20260504173056 25 225 6.4 16.1 0.00 0.00 0.00 50 1013.2
20260504171540 25 176 6.4 16.1 0.00 0.00 0.00 51 1013.3
20260504081515 13 229 0.0 4.8 0.00 0.00 0.00 75 1014.5
20260504050117 12 223 0.0 1.6 0.00 0.00 0.00 73 1015.9
20260504044548 12 223 0.0 3.2 0.00 0.00 0.00 74 1015.9
20260504043047 12 216 0.0 1.6 0.00 0.00 0.00 74 1016.0
20260504041547 12 216 0.0 0.0 0.00 0.00 0.00 75 1016.2
20260504040046 12 216 0.0 0.0 0.00 0.00 0.00 75 1016.4
20260504034551 12 216 0.0 1.6 0.00 0.00 0.00 75 1016.5
20260504033046 12 216 0.0 1.6 0.00 0.00 0.00 77 1016.4
20260504031603 11 216 0.0 1.6 0.00 0.00 0.00 79 1016.6
20260504030044 11 216 0.0 1.6 0.00 0.00 0.00 80 1016.8
20260504024545 11 216 0.0 1.6 0.00 0.00 0.00 79 1016.7
20260504023043 12 216 0.0 0.0 0.00 0.00 0.00 77 1016.7
20260504021542 12 216 0.0 0.0 0.00 0.00 0.00 75 1016.6
20260504020043 12 216 0.0 0.0 0.00 0.00 0.00 73 1016.5
20260504014544 13 216 0.0 0.0 0.00 0.00 0.00 71 1016.3
20260504013041 14 216 0.0 0.0 0.00 0.00 0.00 68 1016.1
20260504011546 15 216 0.0 0.0 0.00 0.00 0.00 64 1016.1
20260504010045 16 216 0.0 0.0 0.00 0.00 0.00 61 1016.3
20260504004540 17 216 0.0 0.0 0.00 0.00 0.00 55 1016.1
20260504003045 18 216 0.0 0.0 0.00 0.00 0.00 52 1016.2
20260504001552 19 216 0.0 1.6 0.00 0.00 0.00 48 1016.2
20260504000037 20 216 0.0 6.4 0.00 0.00 0.00 46 1016.1
20260503234536 20 222 0.0 6.4 0.00 0.00 0.00 45 1016.3
20260503233035 21 224 0.0 8.0 0.00 0.00 0.00 44 1016.6
20260503231545 21 173 4.8 17.7 0.00 0.00 0.00 42 1016.4
20260503230033 22 215 0.0 12.9 0.00 0.00 0.00 40 1016.4
20260503224531 22 249 3.2 12.9 0.00 0.00 0.00 40 1016.9
20260503223029 22 194 3.2 16.1 0.00 0.00 0.00 39 1016.9
20260503221527 22 165 6.4 17.7 0.00 0.00 0.00 40 1017.1
20260503220034 22 209 1.6 12.9 0.00 0.00 0.00 40 1017.1
20260503214522 22 188 4.8 12.9 0.00 0.00 0.00 40 1017.4
20260503213022 23 205 1.6 9.7 0.00 0.00 0.00 38 1017.8
20260503211522 22 205 1.6 16.1 0.00 0.00 0.00 42 1018.1
20260503210017 22 239 1.6 8.0 0.00 0.00 0.00 39 1018.3
20260503204510 22 211 4.8 12.9 0.00 0.00 0.00 39 1018.6
20260503203014 22 286 3.2 12.9 0.00 0.00 0.00 37 1018.8
20260503201510 22 209 4.8 11.3 0.00 0.00 0.00 40 1019.0
20260503200006 22 217 3.2 9.7 0.00 0.00 0.00 40 1019.1
20260503194506 22 187 3.2 12.9 0.00 0.00 0.00 40 1019.3
20260503193059 21 208 3.2 11.3 0.00 0.00 0.00 38 1019.7